Regional Weather Roundup
Issued by NWS Goodland, KS

Home | Current Version | Previous Version | Graphics & Text | Print | Product List | Glossary On
Versions: 1 2 3 4 5 6 7 8 9 10 11 12 13 14 15 16 17 18 19 20 21 22 23 24 25 26 27 28 29 30 31 32 33 34 35 36 37 38 39 40 41 42 43 44 45 46 47 48 49 50
000
ASUS43 KGLD 220659
RWRGLD

GOODLAND FORECAST AREA HOURLY WEATHER ROUNDUP
NATIONAL WEATHER SERVICE GOODLAND KS
100 AM MDT FRI MAY 22 2015

...OFFICIAL OBSERVATIONS...

CITY           SKY/WX    TMP DP  RH WIND       PRES   REMARKS
GOODLAND KS    CLOUDY    49  46  90 SE8       30.17F
HILL CITY KS   CLOUDY    48  44  86 E3        30.21S
IMPERIAL NEB   CLOUDY    48  45  89 SE7       30.17F
MCCOOK NEB     MOCLDY    48  44  86 SE6       30.20S
AKRON CO       CLOUDY    46  45  96 SE17      30.13F
BURLINGTON CO  CLOUDY    49  43  80 SE13      30.16F
LIMON CO       CLOUDY    44  43  96 SE17      30.12F
$$

...UNOFFICIAL OBSERVATIONS...

CITY           SKY/WX    TMP DP  RH WIND       PRES   REMARKS
COLBY KS       CLOUDY    50  48  93 SE8       30.19F
GOVE KS          N/A     50  32  50 MISG        N/A
LENORA KS        N/A     47  32  56 MISG        N/A
NORTON KS      CLEAR     48  41  76 CALM      30.19F
SHARON SPRINGS   N/A     50  47  88 MISG        N/A
TRENTON NEB      N/A     47  32  56 S7          N/A
KIT CARSON CO    N/A     47  44  89 MISG        N/A
YUMA CO          N/A     49  43  81 N12         N/A
$$



USA.gov is the U.S. government's official web portal to all federal, state and local government web resources and services.